STARLINK-11575, 63308

Orbit data source: Space-Track

STARLINK-11575, 63308 is a payload satellite owned by SpaceX/Seattle (US) in LEO that was launched on Tue, 18 Mar 2025 UTC via an FALCON 9 launch vehicle from the Air Force Eastern Test Range (AFETR). Payload-class satellites include a variety of spacecraft equipped with specific instruments for various scientific and technological missions. These include communications satellites like Starlink; space stations such as the ISS; scientific satellites like the Hubble; Earth observation satellites from companies like Planet Labs, Umbra, and HawkEye 360; GPS; miniature CubeSats for education and research; and military/defense satellites.

Loading next visibility...
Identifier
63308, 2025-057B
Orbit
LEO
Country
Flag of USUS
Related business
Manufacturer
SpaceX/Seattle
Mission
Operational Commercial Communications
Bus & Motor
STARLINK V2MD, Unknown motor
Mass
960 kg wet, ~910 kg dry
Launch date (UTC)
2025-03-18 (6 months ago)
Launch vehicle
FALCON 9
Launch site
Air Force Eastern Test Range (AFETR)
Object type
Payload
Rocket body
Debris
Shape & HBR
Box + 2 Pan, 14.5 m
Radar Cross Section
36.964 m², Large (>1 m²)

Expand to show TLE details & history
Last TLE update: 1 day ago

TLE from 1 day ago
0 STARLINK-11575
1 63308U 25057B   25260.27642695  .00237985  00000-0  17963-2 0  9997
2 63308  42.9993 229.8611 0003574 250.0490 109.9993 15.70959035 29900
Epoch: 2025-09-17T06:38Z
TLE epoch observation values (Epoch: 2025-09-17T06:38:03.288Z)
Latitude
-0.00001°
Longitude
133.8927°
Altitude
356.75 km
Speed
7.697 km/s
True Right ascension
15h 19m 26s
True Declination
0° 00' 00"
Sunlit
Object was in daylight at epoch
Visualization orbit readout
Latitude
Unknown
Longitude
Unknown
Altitude
Unknown
Speed
Unknown
Apparent Right ascension
Unknown
Apparent Declination
Unknown
Sunlit
N/A
Visualization observer readout
Local Sidereal Time
01:46:31
Azimuth
Unknown
Elevation
Unknown
Doppler factor
Unknown
Orbital elements
Apogee altitude
360.544 km
Perigee altitude
355.729 km
Semi-major axis
6,736.274 km
Eccentricity
0.00036
Inclination
42.9993°
RAAN
229.8611°
Arg. of periapsis
250.049°
True anomaly
110.03778°
Mean anomaly
109.9993°
Eccentric anomaly
110.01854°
Mean motion
3.92567 °/min
Orbital period
91.7 mins
BSTAR
0.0017963
Loading maneuver chart data...
Computing Atmospheric mass density...
Loading historical data...
Loading historical data...
Loading historical data...
Loading historical data...
Loading historical data...
Loading historical data...
Loading historical data...

Documentation

Showing up to 5 results
|